Location: Newark
(25.4297°S, 49.2719°W)
Time: 20:41:20
(UTC+00:00)

Vanguard 1 Rocket - Pass Details

Date: 24 November 2019
Orbit: 650 x 4226 km, 34.3° (Epoch: 07 December)

Event Time Altitude Azimuth Distance (km) Brightness Sun altitude
Rises 22:38:02 0° 245° (WSW) 8,469 14.6 -10.7°
Reaches altitude 10° 22:44:04 10° 246° (WSW) 7,432 13.5 -11.9°
Maximum altitude 23:09:02 69° 323° (NW) 3,419 10.2 -16.7°
Enters shadow 23:20:35 22° 40° (NE) 4,075 10.1 -18.9°
Drops below altitude 10° 23:23:31 10° 44° (NE) 4,647 - -19.4°
Sets 23:26:19 0° 47° (NE) 5,288 - -19.9°
